64491 station(s) have been heard in the last 24 hours.

<< 127 128 129 130 131 132 133 >>
  Name/Id Latest heard Comment/Other Map
Symbol SP7ZCN 1788462592 Harcerski Klub Lacznosci Map
Symbol WINFD-2 1788462592 Winona Fire: 911 Map
Symbol W9JCA-1 1788462592 PORTLAND INDIANA Map
Symbol IU8EQC-3 1788462592 DIGI-IGATE LORA - REGGIO CALABRIA Batt=4.16V Map
Symbol 9A0URV-R 1788462592 70cm MMDVM Voice (C4FM) 438.77500MHz -7.6000MHz, 9A0URV_Pi-Star_RPT Map
Symbol YO2SH-D 1788462592 70cm MMDVM Voice (DMR) 438.80000MHz -7.0000MHz, APRS for DMRGateway Map
Symbol HK4RAU-80 1788462592 ESTACION DEL CLIMA APRS ZONA 8 RADIOAFICIONADOS UNIDOS 146.520 MHz en Simplex Fonia - Reporte del clima en PaSto: muy nuboso Map
Symbol PE4CE-R 1788462592 70cm MMDVM Voice (C4FM) 439.80000MHz -9.4000MHz, PE4CE_Pi-Star_RPT Map
Symbol BG2TPK 1788462592 Map
Symbol VE4DRK B 1788462592 70cm Voice (D-Star) 439.45000MHz -5.0000MHz Map
Symbol WINPD 1788462592 Winona Police Dept: 911 Map
Symbol KQ4ETM-10 1788462592 145.010MHz Winlink Packet Gateway Map
Symbol W4NNF-B 1788462592 70cm Voice (D-Star) 446.17500MHz +0.0000MHz Map
Symbol DL2HCK-A 1788462592 DVRPTR V2 Hamburg Map
Symbol W5BII B 1788462592 440 Voice 443.325MHz +5.00 Map
Symbol 9M2VIS-9 1788462592 11.9V 23C HDOP01.0 SATS09 Argent Data Tracker OT1+ (RF) Map
Symbol K4OKE-3 1788462592 WIDEn-n Digi On The Web @ pbpg.org Map
Symbol GB7EI-D 1788462592 70cm MMDVM Voice (DMR) 430.85000MHz +7.6000MHz, APRS for DMRGateway Map
Symbol ONA 1788462592 Winona Municipal Airport - Max Conrad Field Map
Symbol M0XDA-B 1788462592 70cm Voice (D-Star) 434.00000MHz +0.0000MHz, APRS for ircDDBGateway Map
Symbol OE6XG-1 1788462592 Pleschkogel RX-iGate JN77OD SYS:OE6VHF Map
Symbol K6EGG-B 1788462592 70cm Voice (D-Star) 431.01250MHz +0.0000MHz Map
Symbol WINHLTH 1788462592 Winona Health: 507-454-3650 Map
Symbol DJ1JR-99 1788462592 MeshCom Gateway#Kirchberg/B=100/B=095 Map
Symbol LSE 1788462592 La Crosse Regional Airport Map
Symbol LX0APE-4 1788462592 WX3in1 plus 2 v1.13 SysOp:LX1CU Map
Symbol DL1ABR 1788462592 openSPOT3 - Home Map
Symbol 9M2TEE-10 1788462592 9M2TEE Ground Station 3.8V L Map
Symbol KG7FOQ-13 1788462592 TU2k Map
Symbol IQ5LI 1788462591 .. iGate/digipeater LoRa tech .. Map
Symbol HB9GL-10 1788462591 APRS4R IGATE Map
Symbol R2AKT-13 1788462591 Weather in Shchyolkovo: Temperature => 15.0 C; Wind => 0.5 m/s, WSW; Gust => 1.2 m/s; Humidity => 74 %; Pressure => 742 mmHg Map
Symbol N4DLW-3 1788462591 .DSVP Map
Symbol VA3BTD-9 1788462591 Map
Symbol PY4RDI-B 1788462591 70cm Voice (D-Star) 439.10000MHz -5.0000MHz Map
Symbol PY2LY-D 1788462591 70cm MMDVM Voice (DMR) 439.62500MHz -5.0000MHz, APRS for DMRGateway Map
Symbol LB4NI-10 1788462591 LoRa APRS Map
Symbol E20BFQ-6 1788462591 IGATE RASPBERRY PI + TNC-PI SAMUTSAKORN Map
Symbol N5SEA-R3 1788462591 444.975MHz +5 CC1 Brandmeister TG 312557 Map
Symbol EA1IKF-N 1788462591 70cm MMDVM Voice (C4FM) 431.57500MHz +0.0000MHz, EA1IKF_Pi-Star_ND Map
Symbol KK2BUD-N 1788462591 70cm MMDVM Voice (C4FM) 432.10000MHz +0.0000MHz, KK2BUD_Pi-Star_ND Map
Symbol G7SSD-D 1788462591 70cm MMDVM Voice (DMR) 439.70000MHz +0.0000MHz, APRS for DMRGateway Map
Symbol BH6SNF-1 1788462591 CQ CQ CQ! Map
Symbol VK5RWN-B 1788462591 440 Voice 438.4000 -5.4 Map
Symbol ER-SR2KU 1788462591 439.425MHz T094 R31k Przemiennik Kaszubski Map
Symbol BD4TIB-1 1788462591 Map
Symbol AA4RV C 1788462591 2m Voice (D-Star) 147.21000MHz +0.6000MHz Map
Symbol VK5RWN-A 1788462591 1.2 Voice 1273.7000 +20 Map
Symbol KQ4ET-10 1788462591 145.730MHz Winlink Packet Gateway Map
Symbol VK4GDW-B 1788462591 70cm Voice (D-Star) 439.15000MHz +0.0000MHz Map